This is the latest recevied weather packets stored in our database for station/object KB1RMA-13. If no packets are shown the sender has not sent any weather packets the latest 10 day(s).
| Time | Temp. | Humidity | Pressure | Rain* | Wind** | Luminosity | Snow |
|---|---|---|---|---|---|---|---|
| 1777986729 | 19.44° C | 59% | 1009.1 hPa | 0 mm | - | 527 W/m² | - |
| 1777986426 | 19.44° C | 59% | 1009.1 hPa | 0 mm | - | 106 W/m² | - |
| 1777986125 | 19.44° C | 59% | 1009 hPa | 0 mm | - | 109 W/m² | - |
| 1777985821 | 18.89° C | 59% | 1009.1 hPa | 0 mm | - | 473 W/m² | - |
| 1777985518 | 18.89° C | 61% | 1009.3 hPa | 0 mm | - | 517 W/m² | - |
| 1777985215 | 18.33° C | 61% | 1009.7 hPa | 0 mm | - | 242 W/m² | - |
| 1777984911 | 18.33° C | 61% | 1009.3 hPa | 0 mm | - | 483 W/m² | - |
| 1777984607 | 17.78° C | 62% | 1009.4 hPa | 0 mm | - | 461 W/m² | - |
| 1777984304 | 18.33° C | 62% | 1009.4 hPa | 0 mm | - | 127 W/m² | - |
| 1777984001 | 18.33° C | 62% | 1009.4 hPa | 0 mm | - | 177 W/m² | - |
| 1777983698 | 18.33° C | 61% | 1009.3 hPa | 0 mm | - | 151 W/m² | - |
| 1777983394 | 17.78° C | 62% | 1009.3 hPa | 0 mm | - | 144 W/m² | - |
| 1777983092 | 17.78° C | 63% | 1009 hPa | 0 mm | - | 392 W/m² | - |
| 1777982787 | 17.78° C | 63% | 1009.1 hPa | 0 mm | - | 104 W/m² | - |
| 1777982483 | 17.22° C | 64% | 1009.2 hPa | 0 mm | - | 309 W/m² | - |
| 1777982178 | 16.67° C | 65% | 1009.2 hPa | 0 mm | - | 295 W/m² | - |
| 1777981875 | 16.67° C | 65% | 1009.2 hPa | 0 mm | - | 275 W/m² | - |
| 1777981572 | 16.67° C | 66% | 1009.2 hPa | 0 mm | - | 271 W/m² | - |
| 1777981269 | 16.11° C | 67% | 1009.2 hPa | 0 mm | - | 247 W/m² | - |
| 1777980965 | 16.11° C | 67% | 1009.2 hPa | 0 mm | - | 224 W/m² | - |
| 1777980662 | 15.56° C | 68% | 1009.2 hPa | 0 mm | - | 207 W/m² | - |
| 1777980358 | 15.56° C | 69% | 1009.3 hPa | 0 mm | - | 199 W/m² | - |
| 1777980057 | 15.56° C | 68% | 1009.4 hPa | 0 mm | - | 182 W/m² | - |
| 1777979756 | 15° C | 70% | 1009.2 hPa | 0 mm | - | 158 W/m² | - |
| 1777979452 | 15° C | 70% | 1009.2 hPa | 0 mm | - | 158 W/m² | - |
* Rain latest hour (hover to see other rain measurements)
** Current wind speed in m/s (hover to see current wind gust speed)